Flag for U.S.A. Weather past 2 weeks in Casper, Wyoming, U.S.A.

Now
75 °F

Sunny.


Feels Like: 74 °F
Forecast: 37 / 73 °F
Wind: 14 mph from West

Location: Natrona County International Airport

Current Time: Mar 31, 2015 at 3:43:41 PM

Latest Report: Mar 31, 2015 at 2:53 PM


Visibility: 10 mi

Pressure: 29.72 "Hg

Humidity: 9%

Dew point: 12 °F

Location of CasperLocation

Historic Weather in Casper — Graph

°F

Casper temperature yesterday

Maximum temperature yesterday: 67 °F (at 3:53 PM)
Minimum temperature yesterday: 29 °F (at 12:53 AM)
Average temperature yesterday: 47 °F

Past Weeks' High & Low Weather Summary

 TemperatureHumidityPressure
High75 °F (Mar 28, 2:53 PM)93% (Mar 17, 11:53 PM)30.33 "Hg (Mar 17, 11:53 PM)
Low25 °F (Mar 29, 5:53 AM)8% (Mar 29, 5:53 PM)29.66 "Hg (Mar 28, 4:53 PM)
Average45 °F49%30.02 "Hg
* Reported Mar 16 1:53 PM — Mar 31 1:53 PM, Casper, Weather by CustomWeather, © 2015

Note: Actual official high and low records may vary slightly from our data, if they occured in-between our weather recording intervals... More about our weather records

Advertising

Casper weather history for previous 24 hours

 ConditionsComfort  
Time TempWeatherWind HumidityBarometerVisibility
1:53 PM
Tue, Mar 31
72 °FSunny.15 mph10%29.77 "Hg10 mi
12:53 PM70 °FSunny.17 mph12%29.82 "Hg10 mi
11:53 AM67 °FSunny.16 mph14%29.86 "Hg10 mi
10:53 AM63 °FSunny.21 mph17%29.90 "Hg10 mi
9:53 AM58 °FSunny.21 mph20%29.95 "Hg10 mi
8:53 AM53 °FSunny.14 mph25%29.93 "Hg10 mi
7:53 AM47 °FSunny.10 mph30%29.96 "Hg10 mi
6:53 AM36 °FClear.6 mph44%29.96 "Hg10 mi
5:53 AM36 °FClear.6 mph46%29.95 "Hg10 mi
4:53 AM36 °FClear.10 mph48%29.94 "Hg10 mi
3:53 AM34 °FClear.8 mph54%29.96 "Hg10 mi
2:53 AM36 °FClear.8 mph50%29.98 "Hg10 mi
1:53 AM35 °FClear.6 mph52%30.00 "Hg10 mi
12:53 AM36 °FClear.8 mph54%30.02 "Hg10 mi
11:53 PM
Mon, Mar 30
34 °FClear.5 mph59%30.04 "Hg10 mi
10:53 PM34 °FClear.8 mph56%30.06 "Hg10 mi
9:53 PM33 °FClear.No wind56%30.08 "Hg10 mi
8:53 PM46 °FClear.9 mph35%30.04 "Hg10 mi
7:53 PM46 °FSunny.5 mph35%30.03 "Hg10 mi
6:53 PM61 °FSunny.9 mph19%30.01 "Hg10 mi
5:53 PM65 °FSunny.15 mph14%29.98 "Hg10 mi
4:53 PM67 °FPassing clouds.18 mph14%29.98 "Hg10 mi
3:53 PM67 °FSunny.13 mph15%29.99 "Hg10 mi
Weather by CustomWeather, © 2015

See weather overviewHow to use our weather pages